Location: Unspecified
(0.0000°N, 0.0000°E)
Time: 13:42:38
(UTC+00:00)

Courier 1B - Pass Details

Date: 20 November 2019
Orbit: 963 x 1209 km, 28.3° (Epoch: 08 December)

Event Time Altitude Azimuth Distance (km) Brightness Sun altitude
Rises 14:47:37 0° 278° (W) 3,684 11.1 41.3°
Reaches altitude 10° 14:50:31 10° 268° (W) 2,765 10.9 40.6°
Maximum altitude 14:56:24 32° 207° (SSW) 1,705 10.0 39.3°
Drops below altitude 10° 15:02:36 10° 146° (SSE) 2,919 10.0 37.9°
Sets 15:05:46 0° 136° (SE) 3,920 10.5 37.2°
